DG5MG Weather Reports


Display with metric or nautical units.
time (UTC)temp
F
wind
direction
speed
MPH
gust
MPH
rain 1hr
in
rain 24hr
in
rain mn
in
humidity
%
barometer
mb
20260506112505 64 137 1.0 2.0 0.00 0.18 0.00 63 1010.8
20260506112005 64 137 1.0 3.0 0.00 0.18 0.00 63 1010.8
20260506111505 64 116 1.0 3.0 0.00 0.18 0.00 62 1010.8
20260506111005 65 132 2.0 3.0 0.00 0.18 0.00 62 1011.2
20260506110505 65 133 2.0 3.0 0.00 0.18 0.00 62 1011.2
20260506110005 65 248 1.0 1.0 0.00 0.18 0.00 63 1011.2
20260506105505 65 276 0.0 1.0 0.00 0.18 0.00 62 1011.2
20260506105005 65 292 0.0 1.0 0.00 0.18 0.00 61 1011.2
20260506103505 64 97 0.0 2.0 0.00 0.18 0.00 61 1011.5
20260506103005 64 129 0.0 1.0 0.00 0.18 0.00 66 1011.2
20260506102505 64 110 0.0 1.0 0.00 0.18 0.00 65 1011.3
20260506102004 63 104 0.0 1.0 0.00 0.18 0.00 64 1011.5
20260506100006 63 128 0.0 0.0 0.00 0.18 0.00 64 1011.5
20260506095505 63 126 2.0 3.0 0.00 0.18 0.00 64 1011.7
20260506095005 64 124 2.0 3.0 0.00 0.18 0.00 63 1011.9
20260506094505 65 119 0.0 1.0 0.00 0.18 0.00 66 1011.9
20260506094005 64 264 0.0 1.0 0.00 0.18 0.00 66 1011.9
20260506093005 62 114 0.0 0.0 0.00 0.18 0.00 67 1011.9
20260506092505 62 122 0.0 0.0 0.00 0.18 0.00 67 1012.0
20260506092004 62 129 0.0 2.0 0.00 0.18 0.00 67 1012.2
20260506091505 62 121 2.0 2.0 0.00 0.18 0.00 67 1011.5
20260506091005 63 124 1.0 2.0 0.00 0.18 0.00 67 1011.5
20260506090505 63 127 0.0 0.0 0.00 0.18 0.00 67 1011.5
20260506090004 63 116 0.0 0.0 0.00 0.18 0.00 66 1011.9
20260506085005 63 139 1.0 1.0 0.00 0.18 0.00 68 1011.9
20260506084504 62 224 0.0 2.0 0.00 0.18 0.00 65 1011.9
20260506084005 62 149 1.0 2.0 0.00 0.18 0.00 67 1011.9
20260506083505 62 132 1.0 2.0 0.00 0.18 0.00 68 1011.9
20260506083004 64 120 1.0 2.0 0.00 0.18 0.00 66 1011.9
20260506082504 63 135 0.0 2.0 0.00 0.18 0.00 70 1011.9
20260506081504 63 130 0.0 0.0 0.00 0.18 0.00 70 1011.9
20260506080505 62 309 0.0 0.0 0.00 0.18 0.00 66 1011.9
20260506073505 62 267 0.0 1.0 0.00 0.18 0.00 70 1012.2
20260506073005 63 295 0.0 1.0 0.00 0.18 0.00 70 1012.2
20260506072505 61 140 0.0 0.0 0.00 0.18 0.00 78 1012.2
20260506072005 61 140 0.0 0.0 0.00 0.18 0.00 78 1012.2
20260506071504 61 132 0.0 0.0 0.00 0.18 0.00 79 1012.2
20260506071005 59 161 0.0 0.0 0.00 0.18 0.00 85 1012.5
20260506070504 59 161 0.0 1.0 0.00 0.18 0.00 85 1012.5
20260506062505 53 110 0.0 0.0 0.00 0.18 0.00 98 1012.5
20260506062005 53 110 0.0 0.0 0.00 0.18 0.00 98 1012.5
20260506061004 51 97 0.0 0.0 0.00 0.18 0.00 98 1012.5
20260506060520 51 97 0.0 0.0 0.00 0.18 0.00 98 1012.5
20260506045005 48 119 0.0 0.0 0.00 0.18 0.00 98 1012.9
20260506044505 48 121 0.0 0.0 0.00 0.18 0.00 98 1012.9
20260506044005 48 157 0.0 0.0 0.00 0.18 0.00 98 1012.5
20260506043505 48 121 0.0 0.0 0.00 0.18 0.00 98 1012.9
20260506043004 48 121 0.0 0.0 0.00 0.18 0.00 98 1012.9
20260506042504 48 121 0.0 0.0 0.00 0.18 0.00 98 1012.9
20260506042005 48 166 0.0 0.0 0.00 0.18 0.00 98 1013.2
20260506041504 48 167 0.0 0.0 0.00 0.18 0.00 98 1013.2
20260506040505 48 130 0.0 0.0 0.00 0.18 0.00 98 1013.2
20260506035504 48 141 0.0 0.0 0.00 0.18 0.00 98 1013.2
20260506035004 48 141 0.0 0.0 0.00 0.18 0.00 98 1013.2
20260506034504 48 141 0.0 0.0 0.00 0.18 0.00 98 1013.2
20260506034004 48 120 0.0 0.0 0.00 0.18 0.00 98 1013.2
20260506033504 48 111 0.0 0.0 0.00 0.18 0.00 98 1013.2
20260506032504 48 110 0.0 0.0 0.00 0.18 0.00 98 1012.9
20260506032004 48 107 0.0 0.0 0.00 0.18 0.00 98 1013.2
20260506031504 48 111 0.0 0.0 0.00 0.18 0.00 98 1013.2
20260506031004 48 112 0.0 0.0 0.00 0.18 0.00 98 1013.2
20260506030504 49 118 0.0 1.0 0.00 0.18 0.00 98 1013.2
20260506030004 49 129 0.0 1.0 0.00 0.18 0.00 98 1013.2
20260506025505 49 109 0.0 0.0 0.00 0.18 0.00 97 1013.2
20260506025004 49 115 0.0 0.0 0.00 0.18 0.00 97 1013.5
20260506024504 49 132 0.0 0.0 0.00 0.18 0.00 97 1013.8
20260506024005 49 140 0.0 1.0 0.00 0.18 0.00 97 1013.9
20260506023504 49 274 0.0 1.0 0.00 0.18 0.00 97 1013.5
20260506023004 49 123 0.0 0.0 0.00 0.18 0.00 97 1013.5
20260506022504 49 192 0.0 1.0 0.00 0.18 0.00 97 1013.5
20260506022004 49 267 0.0 1.0 0.00 0.18 0.00 97 1013.5
20260506021504 49 276 0.0 1.0 0.00 0.18 0.00 97 1013.4
20260506021004 49 280 0.0 0.0 0.00 0.18 0.00 97 1013.2
20260506020504 49 142 0.0 0.0 0.00 0.18 0.00 97 1013.2
20260506020004 49 252 0.0 0.0 0.00 0.18 0.00 97 1013.2
20260506015504 49 120 0.0 0.0 0.00 0.18 0.00 97 1013.5
20260506015004 49 174 0.0 0.0 0.00 0.18 0.00 97 1013.5
20260506014504 49 184 0.0 0.0 0.00 0.18 0.00 97 1013.5
20260506014004 49 294 0.0 0.0 0.00 0.18 0.00 97 1013.9
20260506013504 49 288 0.0 0.0 0.00 0.18 0.00 97 1013.5
20260506013004 49 112 0.0 0.0 0.00 0.18 0.00 97 1013.5
20260506012504 49 251 0.0 0.0 0.00 0.18 0.00 97 1013.9
20260506012004 49 254 2.0 3.0 0.00 0.18 0.00 97 1013.9
20260506011504 49 257 2.0 3.0 0.00 0.18 0.00 97 1013.9
20260506011004 49 241 0.0 1.0 0.00 0.18 0.00 97 1013.9
20260506010004 50 262 0.0 0.0 0.00 0.18 0.00 97 1013.9
20260506005504 50 242 0.0 0.0 0.00 0.18 0.00 97 1013.9
20260506004504 50 151 0.0 0.0 0.00 0.18 0.00 97 1013.9
20260506004004 50 220 0.0 1.0 0.00 0.18 0.00 97 1013.9
20260506003004 50 288 0.0 0.0 0.00 0.18 0.00 97 1013.9
20260506002504 50 286 0.0 1.0 0.00 0.18 0.00 97 1013.9
20260506001504 51 281 2.0 5.0 0.00 0.18 0.00 97 1013.9
20260506001004 51 233 0.0 1.0 0.00 0.18 0.00 97 1014.2
20260506000504 51 341 0.0 1.0 0.00 0.18 0.00 97 1014.2
20260506000004 51 276 0.0 0.0 0.00 0.18 0.00 97 1014.2
20260505235504 51 277 0.0 1.0 0.00 0.18 0.00 97 1014.2
20260505235004 51 292 0.0 3.0 0.00 0.18 0.00 97 1014.2
20260505234003 51 240 0.0 1.0 0.00 0.18 0.00 97 1014.6
20260505233519 51 114 0.0 0.0 0.00 0.18 0.00 97 1014.6
20260505232504 51 112 0.0 0.0 0.00 0.18 0.00 97 1014.2
20260505232004 51 122 0.0 0.0 0.00 0.18 0.00 97 1014.6
20260505231504 51 223 0.0 2.0 0.00 0.18 0.00 97 1014.2
20260505231004 52 282 1.0 2.0 0.00 0.18 0.00 96 1014.6
20260505230504 52 255 0.0 1.0 0.00 0.18 0.00 96 1014.2
20260505230004 52 289 2.0 6.0 0.00 0.18 0.00 96 1014.3
20260505225504 52 297 3.0 6.0 0.00 0.18 0.00 97 1014.6
20260505225004 52 266 1.0 2.0 0.00 0.18 0.00 97 1014.2
20260505224504 52 237 0.0 2.0 0.00 0.18 0.00 97 1014.2
20260505224004 52 294 1.0 2.0 0.00 0.18 0.00 97 1014.2
20260505223504 52 295 1.0 3.0 0.00 0.18 0.00 97 1014.2
20260505222504 53 162 0.0 1.0 0.00 0.18 0.00 97 1014.6
20260505222004 53 226 0.0 1.0 0.00 0.18 0.00 97 1014.6
20260505221504 53 297 0.0 1.0 0.00 0.18 0.00 97 1014.6
20260505221004 53 163 0.0 1.0 0.01 0.18 0.00 97 1014.7
20260505220504 53 159 1.0 5.0 0.01 0.18 0.00 97 1014.9
20260505220004 53 334 2.0 5.0 0.04 0.18 0.00 97 1014.9
20260505215004 53 15 0.0 0.0 0.07 0.18 0.18 97 1014.9
20260505214504 53 236 0.0 0.0 0.07 0.18 0.18 97 1014.9
20260505214004 53 172 0.0 0.0 0.10 0.18 0.18 97 1014.7
20260505212504 53 137 0.0 2.0 0.13 0.18 0.18 96 1014.9
20260505212004 53 81 1.0 2.0 0.16 0.18 0.18 96 1014.9
20260505211504 54 231 0.0 1.0 0.16 0.18 0.18 96 1014.9
20260505210503 54 326 5.0 7.0 0.16 0.17 0.17 96 1014.9
20260505210004 54 317 2.0 5.0 0.13 0.14 0.14 96 1014.9
20260505205004 54 275 0.0 0.0 0.10 0.11 0.11 95 1014.6
20260505204504 54 292 0.0 0.0 0.10 0.11 0.11 94 1014.6
20260505204004 54 299 1.0 3.0 0.07 0.08 0.08 94 1014.6
20260505202504 55 314 0.0 6.0 0.04 0.05 0.05 92 1014.2
20260505202004 56 252 5.0 6.0 0.01 0.02 0.02 90 1014.2
20260505201504 56 263 5.0 6.0 0.01 0.02 0.02 89 1014.1
20260505201004 56 289 5.0 7.0 0.01 0.01 0.01 87 1013.9
20260505200504 56 280 6.0 7.0 0.01 0.01 0.01 86 1013.9
20260505195004 56 274 2.0 5.0 0.01 0.01 0.01 86 1013.6
20260505194504 56 278 3.0 7.0 0.01 0.01 0.01 86 1013.5
20260505194004 56 270 6.0 7.0 0.01 0.01 0.01 86 1013.2
20260505193504 56 277 3.0 3.0 0.01 0.01 0.01 87 1013.2
20260505193004 57 287 0.0 0.0 0.01 0.01 0.01 86 1012.9
20260505192504 58 358 0.0 0.0 0.01 0.01 0.01 84 1012.5
20260505192004 58 328 0.0 0.0 0.01 0.01 0.01 83 1012.5
20260505191004 59 276 2.0 3.0 0.00 0.00 0.00 77 1012.5
20260505190504 59 276 2.0 2.0 0.00 0.00 0.00 77 1012.5
20260505190004 60 276 2.0 2.0 0.00 0.00 0.00 73 1012.2
20260505185504 60 277 1.0 2.0 0.00 0.00 0.00 71 1012.4
20260505184503 60 257 2.0 3.0 0.00 0.00 0.00 69 1012.2
20260505184004 61 259 0.0 0.0 0.00 0.00 0.00 70 1012.2
20260505183504 61 289 0.0 0.0 0.00 0.00 0.00 69 1012.2
20260505183004 61 278 2.0 2.0 0.00 0.00 0.00 69 1012.2
20260505182505 61 274 2.0 5.0 0.00 0.00 0.00 69 1012.2
20260505182004 61 300 2.0 5.0 0.00 0.00 0.00 67 1012.2
20260505181504 61 288 3.0 5.0 0.00 0.00 0.00 65 1012.2
20260505181004 61 288 3.0 5.0 0.00 0.00 0.00 65 1012.2
20260505180005 62 252 2.0 6.0 0.00 0.00 0.00 68 1012.2
20260505175503 62 252 2.0 6.0 0.00 0.00 0.00 68 1012.2
20260505175004 62 276 0.0 2.0 0.00 0.00 0.00 69 1011.9
20260505174004 62 269 1.0 2.0 0.00 0.00 0.00 68 1012.2
20260505173505 63 263 1.0 3.0 0.00 0.00 0.00 67 1011.9
20260505173004 63 348 1.0 3.0 0.00 0.00 0.00 66 1011.9
20260505172504 63 348 1.0 3.0 0.00 0.00 0.00 66 1011.9
20260505171504 64 292 5.0 6.0 0.00 0.00 0.00 67 1011.9
20260505171004 64 292 4.0 6.0 0.00 0.00 0.00 67 1011.9
20260505170504 64 259 1.0 3.0 0.00 0.00 0.00 69 1011.9
20260505170004 65 274 1.0 3.0 0.00 0.00 0.00 70 1011.5
20260505165505 65 274 1.0 3.0 0.00 0.00 0.00 70 1011.5
20260505165005 65 59 2.0 5.0 0.00 0.00 0.00 70 1011.5
20260505164504 65 341 2.0 5.0 0.00 0.00 0.00 70 1011.5
20260505164005 65 341 2.0 5.0 0.00 0.00 0.00 70 1011.5
20260505163504 66 271 1.0 7.0 0.00 0.00 0.00 69 1011.9
20260505163004 66 259 5.0 7.0 0.00 0.00 0.00 67 1011.9
20260505162504 66 259 4.0 7.0 0.00 0.00 0.00 67 1011.9
20260505162004 67 116 0.0 0.0 0.00 0.00 0.00 66 1011.5
20260505161504 67 169 0.0 0.0 0.00 0.00 0.00 68 1011.9
20260505161004 67 169 0.0 0.0 0.00 0.00 0.00 68 1011.9
20260505160504 67 117 0.0 0.0 0.00 0.00 0.00 66 1012.2
20260505153004 65 124 0.0 0.0 0.00 0.00 0.00 69 1011.9
20260505152004 64 125 0.0 1.0 0.00 0.00 0.00 69 1011.9
20260505151004 63 271 0.0 1.0 0.00 0.00 0.00 72 1011.9
20260505150504 64 271 0.0 0.0 0.00 0.00 0.00 75 1011.9
20260505140504 68 282 5.0 10.0 0.00 0.00 0.00 55 1011.5
20260505125006 72 294 2.0 5.0 0.00 0.00 0.00 43 1011.5
20260505124006 73 284 2.0 6.0 0.00 0.00 0.00 41 1011.5
20260505123506 74 256 5.0 6.0 0.00 0.00 0.00 40 1011.5
20260505123006 75 302 1.0 2.0 0.00 0.00 0.00 40 1011.2
20260505122506 75 302 1.0 2.0 0.00 0.00 0.00 40 1011.2
20260505122006 74 293 1.0 2.0 0.00 0.00 0.00 40 1011.5
20260505121506 74 279 1.0 2.0 0.00 0.00 0.00 41 1011.9
20260505121005 74 279 1.0 2.0 0.00 0.00 0.00 41 1011.9
20260505120506 73 280 2.0 5.0 0.00 0.00 0.00 41 1011.9
20260505120006 73 233 2.0 5.0 0.00 0.00 0.00 42 1011.5
20260505115506 73 233 2.0 5.0 0.00 0.00 0.00 42 1011.5
20260505115006 73 294 0.0 1.0 0.00 0.00 0.00 42 1011.5
20260505114506 75 300 1.0 1.0 0.00 0.00 0.00 40 1011.5
20260505114006 75 300 1.0 1.0 0.00 0.00 0.00 40 1011.5
20260505113506 76 188 0.0 1.0 0.00 0.00 0.00 39 1011.5
20260505113006 77 327 0.0 1.0 0.00 0.00 0.00 40 1011.8